Location: Les Salelles
(44.4192°N, 4.1044°E)
Time: 16:58:32
(UTC+00:00)

Cosmos 2279 Rocket - Pass Details

Date: 20 January 2021
Orbit: 964 x 979 km, 82.9° (Epoch: 25 February)

Event Time Altitude Azimuth Distance (km) Brightness Sun altitude
Rises 17:55:30 0° 349° (NNW) 3,692 7.0 -13.9°
Reaches altitude 10° 17:58:03 10° 346° (NNW) 2,740 6.4 -14.4°
Maximum altitude 18:04:14 65° 267° (W) 1,074 4.5 -15.5°
Drops below altitude 10° 18:10:23 10° 187° (S) 2,715 6.6 -16.5°
Sets 18:12:54 0° 184° (S) 3,656 7.2 -17.0°
